CW5260 Weather Reports


time (UTC)temp
C
wind
direction
speed
KPH
gust
KPH
rain 1hr
cm
rain 24hr
cm
rain mn
cm
humidity
%
barometer
mb
20260510010106 11 185 1.6 6.4 0.00 0.74 0.69 96 1008.7
20260510005606 11 186 1.6 4.8 0.00 0.74 0.69 95 1008.7
20260510005106 11 186 0.0 4.8 0.00 0.74 0.69 95 1008.7
20260510004606 11 186 0.0 0.0 0.00 0.74 0.69 95 1008.6
20260510004107 11 186 0.0 0.0 0.00 0.74 0.69 95 1008.6
20260510003649 11 186 0.0 0.0 0.00 0.74 0.69 95 1008.5
20260510003149 11 186 0.0 0.0 0.00 0.74 0.69 94 1008.5
20260510002607 11 186 0.0 0.0 0.00 0.74 0.69 94 1008.6
20260510002106 11 186 0.0 0.0 0.00 0.74 0.69 94 1008.5
20260510001606 11 186 0.0 0.0 0.00 0.74 0.69 94 1008.4
20260510001106 11 186 0.0 0.0 0.00 0.74 0.69 94 1008.3
20260510000607 11 186 0.0 0.0 0.00 0.74 0.69 93 1008.3
20260510000106 11 186 0.0 0.0 0.00 0.74 0.69 93 1008.3
20260509235606 12 186 0.0 3.2 0.00 0.74 0.69 93 1008.2
20260509235107 12 186 0.0 4.8 0.00 0.74 0.69 93 1008.1
20260509234606 12 186 0.0 3.2 0.00 0.74 0.69 92 1008.1
20260509234106 12 185 0.0 3.2 0.00 0.74 0.69 92 1008.2
20260509233649 12 226 1.6 6.4 0.00 0.74 0.69 92 1008.2
20260509233107 12 259 1.6 8.0 0.00 0.74 0.69 92 1008.2
20260509232607 12 183 1.6 8.0 0.00 0.74 0.69 93 1008.1
20260509232106 13 220 0.0 8.0 0.00 0.74 0.69 94 1008.1
20260509231607 13 213 0.0 3.2 0.00 0.74 0.69 94 1008.1
20260509231107 12 213 1.6 3.2 0.00 0.74 0.69 94 1008.1
20260509230606 12 234 0.0 6.4 0.00 0.74 0.69 94 1008.1
20260509230149 12 206 0.0 4.8 0.00 0.74 0.69 95 1008.2
20260509225607 12 206 0.0 3.2 0.00 0.74 0.69 95 1008.2
20260509225107 12 205 0.0 3.2 0.00 0.74 0.69 94 1008.2
20260509224607 12 202 0.0 4.8 0.00 0.76 0.69 95 1008.1
20260509224149 12 188 1.6 3.2 0.00 0.76 0.69 95 1008.1
20260509223607 12 214 1.6 9.7 0.00 0.76 0.69 95 1008.1
20260509223107 12 215 1.6 8.0 0.00 0.76 0.69 95 1008.2
20260509222649 12 170 1.6 6.4 0.00 0.79 0.69 95 1008.2
20260509222107 12 222 1.6 9.7 0.00 0.79 0.69 95 1008.1
20260509221607 12 165 1.6 8.0 0.00 0.79 0.69 95 1008.3
20260509221149 12 220 1.6 11.3 0.00 0.79 0.69 96 1008.2
20260509220607 12 181 1.6 8.0 0.00 0.79 0.69 96 1008.3
20260509220107 12 174 1.6 4.8 0.00 0.79 0.69 96 1008.3
20260509215607 12 235 1.6 8.0 0.00 0.79 0.69 96 1008.4
20260509215106 12 308 1.6 3.2 0.00 0.79 0.69 96 1008.4
20260509214606 12 166 1.6 4.8 0.00 0.79 0.69 96 1008.4
20260509214106 12 168 0.0 3.2 0.00 0.79 0.69 96 1008.3
20260509213149 12 169 1.6 9.7 0.00 0.79 0.69 96 1008.4
20260509212607 13 221 1.6 8.0 0.00 0.79 0.69 97 1008.4
20260509212107 13 185 1.6 6.4 0.00 0.79 0.69 97 1008.4
20260509211607 12 234 0.0 4.8 0.00 0.79 0.69 97 1008.5
20260509211107 12 275 0.0 3.2 0.00 0.79 0.69 97 1008.6
20260509210606 12 275 0.0 1.6 0.00 0.79 0.69 97 1008.6
20260509210149 12 275 1.6 8.0 0.00 0.79 0.69 97 1008.6
20260509205607 12 277 1.6 6.4 0.00 0.79 0.69 97 1008.6
20260509205149 12 261 1.6 9.7 0.00 0.79 0.69 97 1008.7
20260509204607 12 234 1.6 8.0 0.03 0.79 0.69 97 1008.9
20260509204107 12 264 1.6 6.4 0.03 0.79 0.69 97 1009.0
20260509203606 12 254 0.0 4.8 0.03 0.79 0.69 97 1008.9
20260509203107 12 257 0.0 1.6 0.03 0.79 0.69 97 1008.9
20260509202607 12 257 0.0 4.8 0.03 0.79 0.69 97 1008.9
20260509202107 12 257 0.0 1.6 0.03 0.79 0.69 97 1009.0
20260509201606 12 210 1.6 9.7 0.03 0.79 0.69 97 1009.0
20260509201106 12 193 1.6 11.3 0.03 0.79 0.69 97 1009.1
20260509200606 12 161 1.6 12.9 0.03 0.79 0.69 97 1009.1
20260509200107 12 158 1.6 8.0 0.03 0.79 0.69 97 1009.2
20260509195607 12 217 1.6 11.3 0.05 0.79 0.69 97 1009.2
20260509195107 12 227 1.6 4.8 0.05 0.79 0.69 97 1009.2
20260509194607 12 192 1.6 11.3 0.03 0.76 0.66 97 1009.2
20260509194106 12 234 1.6 9.7 0.03 0.76 0.66 97 1009.2
20260509193649 12 203 1.6 6.4 0.05 0.76 0.66 97 1009.3
20260509193107 12 169 0.0 4.8 0.05 0.76 0.66 97 1009.3
20260509192607 12 168 0.0 1.6 0.05 0.76 0.66 98 1009.3
20260509192107 11 168 1.6 4.8 0.08 0.76 0.66 97 1009.4
20260509191606 11 210 0.0 11.3 0.08 0.76 0.66 97 1009.4
20260509191107 11 232 0.0 3.2 0.10 0.76 0.66 97 1009.4
20260509190606 11 232 0.0 1.6 0.10 0.76 0.66 97 1009.4
20260509190107 11 232 0.0 1.6 0.15 0.76 0.66 97 1009.4
20260509185607 11 232 0.0 1.6 0.15 0.74 0.64 97 1009.5
20260509185107 11 232 0.0 0.0 0.18 0.74 0.64 97 1009.6
20260509184606 11 232 0.0 1.6 0.20 0.74 0.64 97 1009.6
20260509184107 11 209 0.0 8.0 0.20 0.74 0.64 97 1009.7
20260509183607 11 186 0.0 4.8 0.20 0.71 0.61 97 1009.7
20260509183106 11 186 0.0 4.8 0.20 0.71 0.61 97 1009.8
20260509182607 11 209 1.6 6.4 0.20 0.71 0.61 97 1009.9
20260509182106 11 193 0.0 8.0 0.23 0.69 0.58 97 1010.0
20260509181607 11 156 1.6 1.6 0.23 0.69 0.58 96 1009.8
20260509181149 11 191 3.2 9.7 0.23 0.66 0.56 96 1009.9
20260509180607 11 214 3.2 14.5 0.23 0.66 0.56 96 1010.0
20260509180107 11 250 1.6 6.4 0.20 0.61 0.51 96 1010.0
20260509175607 11 211 1.6 11.3 0.18 0.58 0.48 96 1010.0
20260509175107 11 185 1.6 6.4 0.15 0.56 0.46 96 1010.0
20260509174607 11 174 1.6 8.0 0.13 0.53 0.43 96 1009.9
20260509174107 11 159 1.6 8.0 0.15 0.53 0.43 96 1009.9
20260509173607 11 179 1.6 8.0 0.13 0.51 0.41 96 1009.9
20260509173107 11 204 1.6 16.1 0.10 0.51 0.38 96 1009.9
20260509172607 11 210 1.6 11.3 0.10 0.51 0.38 96 1010.0
20260509172107 11 142 1.6 8.0 0.10 0.48 0.36 96 1010.0
20260509171649 11 206 0.0 9.7 0.10 0.48 0.36 96 1009.9
20260509171149 11 193 1.6 8.0 0.10 0.46 0.33 96 1010.0
20260509170607 11 215 1.6 4.8 0.13 0.46 0.33 96 1009.9
20260509170149 11 185 1.6 11.3 0.10 0.43 0.30 96 1010.0
20260509165606 11 166 3.2 17.7 0.13 0.43 0.30 96 1009.9
20260509165107 11 145 1.6 8.0 0.13 0.43 0.30 96 1009.9
20260509164607 11 179 1.6 3.2 0.13 0.43 0.30 96 1009.9
20260509164107 11 195 0.0 9.7 0.13 0.41 0.28 96 1010.0
20260509163606 11 180 1.6 6.4 0.13 0.41 0.28 96 1010.0
20260509163107 11 178 1.6 9.7 0.13 0.41 0.28 96 1010.0
20260509162607 11 213 1.6 6.4 0.13 0.41 0.28 96 1010.1
20260509162107 11 208 1.6 6.4 0.10 0.38 0.25 96 1010.2
20260509161607 11 218 1.6 4.8 0.13 0.38 0.25 96 1010.1
20260509161107 11 158 1.6 8.0 0.10 0.36 0.23 95 1010.2
20260509160607 11 138 1.6 9.7 0.08 0.33 0.20 95 1010.3
20260509160149 11 200 1.6 9.7 0.08 0.33 0.20 95 1010.3
20260509155607 11 169 1.6 6.4 0.05 0.30 0.18 95 1010.4
20260509155107 11 222 1.6 8.0 0.08 0.30 0.18 96 1010.3
20260509154607 11 274 1.6 6.4 0.08 0.30 0.18 96 1010.4
20260509154107 11 192 1.6 6.4 0.05 0.28 0.15 96 1010.4
20260509153607 11 178 1.6 8.0 0.05 0.28 0.15 95 1010.4
20260509153107 11 184 1.6 9.7 0.08 0.28 0.15 95 1010.4
20260509152607 11 207 0.0 8.0 0.08 0.28 0.15 96 1010.3
20260509152149 11 169 0.0 1.6 0.05 0.28 0.15 95 1010.3
20260509151607 11 169 0.0 6.4 0.05 0.25 0.13 95 1010.4
20260509151107 11 201 0.0 4.8 0.05 0.25 0.13 95 1010.3
20260509150607 11 206 0.0 0.0 0.08 0.25 0.13 95 1010.3
20260509150107 11 207 0.0 1.6 0.08 0.25 0.13 95 1010.3
20260509145607 11 167 0.0 8.0 0.05 0.25 0.13 95 1010.3
20260509144649 11 189 0.0 6.4 0.05 0.23 0.10 95 1010.4
20260509144106 11 223 0.0 6.4 0.05 0.23 0.10 95 1010.4
20260509143607 11 227 0.0 4.8 0.05 0.23 0.10 95 1010.4
20260509143107 11 221 0.0 6.4 0.03 0.20 0.08 95 1010.5
20260509142650 11 237 0.0 1.6 0.05 0.20 0.08 95 1010.4
20260509142149 11 227 0.0 8.0 0.05 0.20 0.08 95 1010.4
20260509141607 11 174 0.0 4.8 0.05 0.20 0.08 96 1010.3
20260509141107 11 174 0.0 1.6 0.05 0.20 0.08 95 1010.2
20260509140607 11 173 0.0 1.6 0.03 0.18 0.05 95 1010.0
20260509140115 11 173 0.0 1.6 0.03 0.18 0.05 95 1010.0
20260509135649 11 173 0.0 1.6 0.03 0.18 0.05 95 1009.9
20260509135107 11 173 0.0 1.6 0.03 0.18 0.05 95 1010.1
20260509134607 11 173 0.0 3.2 0.03 0.18 0.05 95 1010.2
20260509134107 11 173 0.0 0.0 0.03 0.18 0.05 95 1010.2
20260509133607 11 171 0.0 4.8 0.03 0.18 0.05 95 1010.4
20260509133150 11 172 0.0 1.6 0.03 0.18 0.05 95 1010.5
20260509132607 11 173 0.0 0.0 0.00 0.15 0.03 95 1010.5
20260509132107 11 167 0.0 3.2 0.00 0.15 0.03 95 1010.5
20260509131607 11 153 0.0 0.0 0.00 0.15 0.03 96 1010.5
20260509131107 11 153 0.0 1.6 0.00 0.15 0.03 96 1010.4
20260509130607 11 153 0.0 1.6 0.00 0.15 0.03 96 1010.4
20260509130107 11 153 0.0 1.6 0.00 0.15 0.03 96 1010.4
20260509125649 11 153 0.0 0.0 0.00 0.15 0.03 96 1010.3
20260509125107 11 153 0.0 0.0 0.00 0.15 0.03 96 1010.4
20260509124649 11 153 0.0 0.0 0.00 0.15 0.03 96 1010.3
20260509124107 10 153 0.0 1.6 0.00 0.15 0.03 96 1010.3
20260509123149 10 153 0.0 0.0 0.00 0.15 0.03 96 1010.0
20260509122607 10 153 0.0 0.0 0.00 0.15 0.03 96 1010.1
20260509122150 10 153 0.0 0.0 0.00 0.15 0.03 96 1009.9
20260509121607 10 153 0.0 0.0 0.00 0.15 0.03 95 1010.0
20260509121107 10 153 0.0 1.6 0.00 0.15 0.03 96 1010.0
20260509120607 10 153 0.0 4.8 0.00 0.15 0.03 96 1010.0
20260509120107 10 153 0.0 3.2 0.00 0.15 0.03 96 1010.0
20260509115607 10 153 0.0 1.6 0.00 0.15 0.03 95 1010.0
20260509115107 10 153 0.0 1.6 0.00 0.15 0.03 95 1009.8
20260509114607 10 153 0.0 1.6 0.03 0.15 0.03 95 1009.8
20260509114107 9 153 1.6 3.2 0.03 0.15 0.03 95 1009.7
20260509113607 9 152 1.6 3.2 0.03 0.15 0.03 96 1009.7
20260509113107 9 152 1.6 6.4 0.03 0.15 0.03 95 1009.7
20260509112607 9 152 1.6 4.8 0.03 0.15 0.03 96 1009.8
20260509112149 9 153 1.6 3.2 0.03 0.15 0.03 96 1009.9
20260509111607 9 153 1.6 4.8 0.03 0.15 0.03 96 1009.9
20260509111107 8 154 1.6 4.8 0.03 0.15 0.03 96 1009.9
20260509110607 8 157 1.6 6.4 0.03 0.15 0.03 96 1009.9
20260509110149 8 163 1.6 3.2 0.03 0.15 0.03 96 1009.9
20260509105649 8 301 0.0 3.2 0.03 0.15 0.03 96 1009.9
20260509105107 8 302 0.0 3.2 0.03 0.15 0.03 96 1010.1
20260509104650 8 302 0.0 3.2 0.00 0.13 0.00 96 1010.1
20260509104109 8 302 0.0 0.0 0.00 0.13 0.00 96 1010.1
20260509103607 8 302 0.0 0.0 0.00 0.13 0.00 96 1010.0
20260509103107 8 302 0.0 0.0 0.00 0.13 0.00 96 1010.2
20260509102607 8 302 0.0 0.0 0.00 0.13 0.00 96 1010.2
20260509102107 8 302 0.0 0.0 0.00 0.13 0.00 96 1010.1
20260509101607 8 302 0.0 0.0 0.00 0.13 0.00 96 1010.3
20260509101149 8 302 0.0 0.0 0.00 0.13 0.00 96 1010.2
20260509100607 8 302 0.0 1.6 0.00 0.13 0.00 96 1010.1
20260509100107 8 296 0.0 6.4 0.00 0.13 0.00 96 1010.3
20260509095650 8 297 1.6 8.0 0.00 0.13 0.00 96 1010.2
20260509095107 8 299 1.6 4.8 0.00 0.13 0.00 96 1010.4
20260509094607 8 299 1.6 6.4 0.00 0.13 0.00 96 1010.4
20260509094107 8 300 1.6 1.6 0.00 0.13 0.00 96 1010.2
20260509093607 8 299 1.6 6.4 0.00 0.13 0.00 96 1010.3
20260509093107 8 299 3.2 6.4 0.00 0.13 0.00 96 1010.3
20260509092649 8 183 3.2 8.0 0.00 0.13 0.00 96 1009.9
20260509092107 8 238 1.6 6.4 0.00 0.13 0.00 96 1010.4
20260509091607 8 184 1.6 3.2 0.00 0.13 0.00 95 1010.0
20260509091107 8 199 0.0 4.8 0.00 0.13 0.00 96 1010.1
20260509090649 8 200 0.0 1.6 0.00 0.13 0.00 96 1010.1
20260509090150 8 200 0.0 1.6 0.00 0.13 0.00 95 1010.1
20260509085607 8 200 0.0 1.6 0.00 0.13 0.00 95 1010.1
20260509085108 8 200 0.0 0.0 0.00 0.13 0.00 95 1010.3
20260509084607 8 200 0.0 0.0 0.00 0.13 0.00 96 1010.4
20260509084149 8 200 0.0 0.0 0.00 0.13 0.00 96 1010.4
20260509083607 8 200 0.0 0.0 0.00 0.13 0.00 95 1010.4
20260509083107 8 200 0.0 0.0 0.00 0.13 0.00 95 1010.4
20260509082607 8 200 0.0 0.0 0.00 0.13 0.00 95 1010.5
20260509082108 8 200 0.0 0.0 0.00 0.13 0.00 95 1010.5
20260509081607 8 200 0.0 0.0 0.00 0.15 0.00 95 1010.6
20260509080607 8 200 0.0 0.0 0.00 0.15 0.00 95 1010.8
20260509080107 8 200 0.0 0.0 0.00 0.15 0.00 95 1010.8
20260509075607 8 200 0.0 0.0 0.00 0.15 0.00 95 1011.0
20260509075108 8 200 0.0 0.0 0.00 0.15 0.00 95 1011.1
20260509074607 8 200 0.0 0.0 0.00 0.15 0.00 95 1011.2
20260509074107 8 200 0.0 0.0 0.00 0.15 0.00 95 1011.2
20260509073607 8 200 0.0 0.0 0.00 0.15 0.00 95 1011.1
20260509073107 8 200 0.0 0.0 0.00 0.15 0.00 95 1011.2
20260509072649 8 200 0.0 0.0 0.00 0.15 0.00 95 1011.1
20260509072150 8 200 0.0 0.0 0.00 0.15 0.00 95 1011.2
20260509071607 8 200 0.0 3.2 0.00 0.15 0.00 95 1011.0
20260509071107 8 200 0.0 1.6 0.00 0.15 0.00 94 1011.1
20260509070607 8 200 0.0 0.0 0.00 0.15 0.00 94 1011.0
20260509070149 8 200 0.0 1.6 0.00 0.15 0.00 94 1011.0
20260509065607 8 200 0.0 0.0 0.00 0.15 0.00 94 1011.2
20260509065149 8 200 0.0 0.0 0.00 0.15 0.00 94 1011.3
20260509064607 8 200 0.0 0.0 0.00 0.15 0.00 95 1011.4
20260509064107 8 200 0.0 0.0 0.00 0.15 0.00 95 1011.5
20260509063607 8 200 0.0 0.0 0.00 0.15 0.00 95 1011.5
20260509063149 8 200 0.0 0.0 0.00 0.15 0.00 95 1011.5
20260509062607 8 200 0.0 0.0 0.00 0.15 0.00 95 1011.5
20260509062108 8 200 0.0 0.0 0.00 0.15 0.00 95 1011.6
20260509061607 9 200 0.0 0.0 0.00 0.15 0.00 94 1011.5
20260509061107 9 200 0.0 0.0 0.00 0.15 0.00 94 1011.4
20260509060607 9 200 0.0 0.0 0.00 0.15 0.00 95 1011.6
20260509060107 9 200 0.0 0.0 0.00 0.15 0.00 95 1011.6
20260509055607 9 200 0.0 0.0 0.00 0.15 0.00 95 1011.8
20260509055107 9 200 0.0 0.0 0.00 0.15 0.00 95 1011.9
20260509054607 9 200 0.0 0.0 0.00 0.15 0.00 95 1011.9
20260509054150 9 200 0.0 0.0 0.00 0.15 0.00 95 1012.0
20260509053608 9 200 0.0 0.0 0.00 0.15 0.00 95 1012.0
20260509053108 9 200 0.0 1.6 0.00 0.15 0.00 95 1012.2
20260509052608 9 200 0.0 3.2 0.00 0.15 0.00 95 1012.2
20260509052107 9 200 0.0 3.2 0.00 0.15 0.00 95 1012.4
20260509051607 9 200 0.0 1.6 0.00 0.15 0.00 95 1012.5
20260509051108 9 205 0.0 3.2 0.00 0.15 0.00 95 1012.6
20260509050607 9 270 0.0 0.0 0.00 0.15 0.00 95 1012.6
20260509050107 9 270 0.0 0.0 0.00 0.15 0.00 95 1012.5
20260509045607 9 270 0.0 0.0 0.00 0.15 0.00 95 1011.9
20260509045107 8 270 0.0 0.0 0.00 0.15 0.00 95 1011.8
20260509044607 8 270 0.0 0.0 0.00 0.15 0.00 95 1011.8
20260509044150 8 270 0.0 0.0 0.00 0.15 0.00 95 1011.8
20260509043649 8 270 0.0 0.0 0.00 0.15 0.00 94 1011.8
20260509043107 8 270 0.0 0.0 0.00 0.15 0.00 94 1011.9
20260509042608 8 270 0.0 0.0 0.00 0.15 0.00 94 1012.0
20260509042107 8 270 0.0 0.0 0.00 0.15 0.00 94 1012.1
20260509041107 8 270 0.0 0.0 0.03 0.23 0.00 94 1011.9
20260509040607 8 270 0.0 0.0 0.03 0.25 0.00 94 1011.8
20260509040107 8 270 0.0 0.0 0.03 0.25 0.00 93 1011.6
20260509035649 9 270 0.0 0.0 0.03 0.25 0.25 93 1011.6
20260509035108 9 270 0.0 0.0 0.03 0.25 0.25 93 1011.5
20260509034608 9 270 0.0 0.0 0.03 0.25 0.25 93 1011.7
20260509034107 9 270 0.0 0.0 0.03 0.25 0.25 93 1011.8
20260509033650 9 270 0.0 0.0 0.03 0.25 0.25 93 1011.9
20260509032607 9 270 0.0 0.0 0.05 0.25 0.25 93 1012.1
20260509032107 9 270 0.0 0.0 0.05 0.25 0.25 92 1012.0
20260509031607 9 270 0.0 0.0 0.03 0.23 0.23 92 1012.0
20260509031107 9 271 0.0 0.0 0.03 0.23 0.23 92 1012.1
20260509030608 9 271 0.0 0.0 0.03 0.23 0.23 92 1012.1
20260509030107 9 270 0.0 0.0 0.03 0.23 0.23 91 1012.1
20260509025607 9 271 0.0 0.0 0.03 0.23 0.23 91 1012.1
20260509025108 9 271 0.0 0.0 0.03 0.23 0.23 91 1012.1
20260509024607 9 271 0.0 0.0 0.03 0.23 0.23 91 1012.0
20260509024107 9 270 0.0 0.0 0.03 0.23 0.23 90 1012.2
20260509023607 9 270 0.0 0.0 0.03 0.23 0.23 90 1012.2
20260509023150 9 270 0.0 0.0 0.00 0.20 0.20 90 1012.3
20260509022649 9 270 0.0 0.0 0.00 0.20 0.20 90 1012.3
20260509022107 9 270 0.0 1.6 0.00 0.20 0.20 90 1012.2
20260509021608 9 271 0.0 0.0 0.00 0.20 0.20 90 1012.0
20260509021107 9 270 0.0 0.0 0.00 0.20 0.20 90 1012.0
20260509020608 9 270 0.0 0.0 0.00 0.20 0.20 90 1012.0
20260509020113 9 271 0.0 0.0 0.00 0.20 0.20 90 1011.9
20260509015607 9 271 0.0 0.0 0.00 0.20 0.20 90 1011.9
20260509015149 9 271 0.0 0.0 0.00 0.20 0.20 90 1011.9
20260509014650 9 270 0.0 0.0 0.00 0.20 0.20 90 1011.9
20260509014108 9 270 0.0 0.0 0.00 0.20 0.20 90 1011.8
20260509013607 9 270 0.0 0.0 0.00 0.20 0.20 91 1011.8
20260509013107 9 270 0.0 0.0 0.00 0.20 0.20 91 1011.8
20260509012608 9 271 0.0 0.0 0.00 0.20 0.20 91 1011.8
20260509012108 9 270 0.0 0.0 0.00 0.20 0.20 91 1011.7
20260509011608 9 271 0.0 0.0 0.00 0.20 0.20 90 1011.6
20260509011150 9 271 0.0 0.0 0.00 0.20 0.20 90 1011.6